Regional Weather Roundup
Issued by NWS

Home | Current Version | Previous Version | Text Only | Print | Product List | Glossary On
Versions: 1 2 3 4 5 6 7 8 9 10 11 12 13 14 15 16 17 18 19 20 21 22 23 24 25 26 27 28 29 30 31 32 33 34 35 36 37 38 39 40 41 42 43 44 45 46 47 48 49 50
000
ASUS43 KDTX 192010
RWRMI
MICHIGAN HOURLY REGIONAL WEATHER ROUNDUP
NATIONAL WEATHER SERVICE DETROIT/PONTIAC MI
400 PM EDT THU APR 19 2018

NOTE: "FAIR" INDICATES FEW OR NO CLOUDS BELOW 12,000 FEET WITH NO
SIGNIFICANT WEATHER AND/OR OBSTRUCTION TO VISIBILITY.

MIZ047>049-052>055-059>063-066>070-074>076-081>083-192100-
SOUTHEAST LOWER MICHIGAN

CITY           SKY/WX    TMP DP  RH WIND       PRES   REMARKS
ADRIAN         FAIR      53  23  31 NW15G23   30.18S
ALMA           FAIR      49  23  35 N15G21    30.22S
ANN ARBOR      FAIR      54  20  26 NW18G29   30.16R
BAD AXE        FAIR      42  18  38 N14G22    30.19R
CARO           FAIR      47  23  39 NW13G21   30.18R
DETROIT CITY   FAIR      52  21  29 NW14G24   30.14
DETROIT        FAIR      53  22  29 NW21G30   30.15S
FLINT          FAIR      50  22  33 N18G29    30.17R
GROSSE ILE     FAIR      53  24  32 NW17      30.14S
HILLSDALE      FAIR      52  21  30 NW16      30.19R
HOWELL         FAIR      50  22  33 NW13G23   30.17S

CITY           SKY/WX    TMP DP  RH WIND       PRES   REMARKS
JACKSON        FAIR      52  15  23 NW14G25   30.18S
LAMBERTVILLE   FAIR      55  21  27 NW15G22   30.17S
LANSING        FAIR      52  18  26 NW21G31   30.21R
LAPEER         FAIR      47  19  32 NW13G23   30.17R
MASON          FAIR      54  15  21 NW17G25   30.19S
MONROE         FAIR      53  23  31 NW12G24   30.15S
MT. CLEMENS    MOSUNNY   49  24  38 N22G29    30.14R
PONTIAC        FAIR      50  20  30 NW18G31   30.14R
PORT HOPE        N/A     38  27  64 N8        30.18R WCI  32
PORT HURON     FAIR      37  27  65 NE15      30.18R WCI  28
TRI CITIES     FAIR      50  27  40 N17       30.20R
MIDLAND        FAIR      48  24  39 NW16G29   30.19R
TROY           FAIR      52  18  26 NW17G24   30.17R
SAGINAW HB     FAIR      50  27  40 N10G18    30.18R
$$
MIZ043>046-050>051-056>058-064>065-071>073-077>080-192100-
SOUTHWEST LOWER MICHIGAN

CITY           SKY/WX    TMP DP  RH WIND       PRES   REMARKS
BATTLE CREEK   FAIR      53  23  31 NW14G22   30.23R
BENTON HARBOR  FAIR      41  31  67 NW10G20   30.34R
BIG RAPIDS     FAIR      47  11  23 N15G24    30.24S
COLDWATER      FAIR      52  24  32 NW15G22   30.22S
FREMONT        FAIR      47  20  34 NW15G23   30.28R
HOLLAND        FAIR      44  32  62 NW14G22   30.30R
GRAND RAPIDS   FAIR      53  27  36 NW13      30.24R
IONIA          FAIR      54  18  24 N17G23    30.22R
KALAMAZOO      FAIR      53  31  42 W12       30.25S
LUDINGTON      FAIR      42  26  52 N13G22    30.33S
MARSHALL       FAIR      55  19  25 NW10G18   30.21S
MOUNT PLEASANT FAIR      49  23  35 N14G21    30.22R
MUSKEGON       FAIR      47  27  45 NW15      30.30R
SOUTH HAVEN    FAIR      41  32  70 N15G23    30.33R
$$
MIZ016>042-192100-
NORTHERN LOWER MICHIGAN

CITY           SKY/WX    TMP DP  RH WIND       PRES   REMARKS
ALPENA         FAIR      42  18  37 NW16G28   30.19S
BEAVER ISLAND  FAIR      40  25  54 NW13G21   30.28R WCI  33
BELLAIRE       FAIR      42  24  49 W10G17    30.27S
CADILLAC       FAIR      41  19  40 NW16G23   30.25R
CHARLEVOIX     FAIR      40  26  57 W12       30.30S WCI  33
FRANKFORT      FAIR      42  28  57 W8        30.33R
GAYLORD        FAIR      41  19  41 NW9       30.21R
GRAYLING       FAIR      42  17  37 NW14G24   30.21R
HARBOR SPRINGS FAIR      43  15  32 NW10G22   30.25R
HOUGHTON LAKE  FAIR      43  16  33 NW18G26   30.21R
MANISTEE       FAIR      41  25  53 NW12      30.33S
OSCODA         FAIR      43  16  34 N12G23    30.17S
PELLSTON       FAIR      41  20  43 NW20G26   30.24R
ROGERS CITY    FAIR      41  18  39 NW16G22   30.21R
TRAVERSE CITY  FAIR      42  22  44 NW13      30.30R
$$
MIZ007>008-015-192100-
EASTERN UPPER MICHIGAN

CITY           SKY/WX    TMP DP  RH WIND       PRES   REMARKS
KINROSS        FAIR      38  19  46 NW18G28   30.23R WCI  28
MACKINAC ISLAN FAIR      45  17  32 N10G18    30.23R
NEWBERRY       FAIR      39  20  46 NW13G24   30.27R WCI  31
S. S. MARIE    FAIR      38  25  59 NW18G31   30.23R WCI  28
MUNISING         N/A     37  27  67 NW14      30.36S WCI  28
$$
MIZ004>006-011>014-085-192100-
CENTRAL UPPER MICHIGAN

CITY           SKY/WX    TMP DP  RH WIND       PRES   REMARKS
MANISTIQUE     FAIR      42  19  38 NW15G22   30.30R
ESCANABA       FAIR      51   6  16 NW9G16    30.33R
MENOMINEE      FAIR      47  21  35 SE9       30.34R
SAWYER-GWINN   SUNNY     43   9  24 NE12      30.34R
$$
MIZ001>003-009>011-084-192100-
WESTERN UPPER MICHIGAN

CITY           SKY/WX    TMP DP  RH WIND       PRES   REMARKS
IRON MOUNTAIN  FAIR      51  11  20 NW12      30.33R
HOUGHTON       FAIR      41  16  36 NW14      30.38R
COPPER HARBOR    N/A     42  19  39 N12       30.37R
IRONWOOD       FAIR      46  12  25 NW10      30.41F
$$

ABBREVIATIONS USED IN REMARKS
   TC - TEMPERATURE IN CELSIUS
  WCI - WIND CHILL INDEX
   HX - HEAT INDEX
  VSB - VISIBILITY





USA.gov is the U.S. government's official web portal to all federal, state and local government web resources and services.